Location: Lixville
(37.5770°N, 89.9118°W)
Time: 13:37:44
(UTC+00:00)

Courier 1B Rocket - Pass Details

Date: 15 November 2024
Orbit: 920 x 1201 km, 28.2° (Epoch: 02 December)

Event Time Altitude Azimuth Distance (km) Brightness Sun altitude
Rises 00:39:42 0° 262° (W) 3,649 9.5 -22.0°
Reaches altitude 10° 00:42:45 10° 251° (WSW) 2,666 8.4 -22.6°
Maximum altitude 00:48:03 28° 194° (SSW) 1,666 6.4 -23.6°
Enters shadow 00:51:07 19° 153° (SSE) 2,041 6.5 -24.2°
